Norah Head Observation History
Time Wind Speed Temp Pressure Rel. Hum Rain
14/11:00am W 7-15 kts 19.1°c 1012.2 hPa 46% 0.0mm
14/10:30am W 6-11 kts 18.6°c 1012.5 hPa 50% 0.0mm
14/10:00am WNW 5-13 kts 18.5°c 1012.6 hPa 52% 0.0mm
14/09:30am W 6-11 kts 17.7°c 1012.5 hPa 52% 0.0mm
14/09:00am WNW 5-13 kts 17.2°c 1012.3 hPa 55% 0.0mm
14/08:30am WNW 5-11 kts 16.4°c 1011.9 hPa 57% 0.0mm
14/08:00am WNW 6-13 kts 15.7°c 1011.7 hPa 60% 0.0mm
14/07:30am WNW 6-16 kts 14.9°c 1011.2 hPa 63% 0.0mm
14/07:00am WNW 4-10 kts 13.9°c 1011.2 hPa 67% 0.0mm
14/06:30am WNW 5-9 kts 13.9°c 1010.8 hPa 65% 0.0mm
14/06:00am WNW 5-11 kts 14.3°c 1010.4 hPa 65% 0.0mm
14/05:30am WNW 4-7 kts 13.6°c 1010.4 hPa 67% 0.0mm
14/05:00am WNW 2-5 kts 13.3°c 1010.2 hPa 68% 0.0mm
14/04:30am NW 3-6 kts 13.8°c 1010.1 hPa 67% 0.0mm
14/04:00am WNW 3-6 kts 14.1°c 1010.1 hPa 67% 0.0mm
14/03:30am WNW 4-7 kts 14.5°c 1009.8 hPa 65% 0.0mm
14/03:00am WNW 4-7 kts 14.5°c 1010.0 hPa 65% 0.0mm
14/02:30am WNW 5-10 kts 14.3°c 1010.1 hPa 69% 0.0mm
14/02:00am WNW 2-5 kts 14.0°c 1010.2 hPa 69% 0.0mm
14/01:30am WNW 3-5 kts 14.3°c 1010.2 hPa 69% 0.0mm
14/01:00am WNW 2-6 kts 14.4°c 1010.3 hPa 69% 0.0mm
14/12:30am CALM 0-2 kts 14.7°c 1010.6 hPa 69% 0.0mm
14/12:00am WNW 2-4 kts 14.6°c 1011.0 hPa 70% 0.0mm
Time Wind Speed Temp Pressure Rel. Hum Rain
13/11:30pm WNW 4-7 kts 15.0°c 1010.9 hPa 70% 0.0mm
13/11:00pm WNW 3-5 kts 14.8°c 1010.8 hPa 69% 0.0mm
13/10:30pm WNW 3-5 kts 15.2°c 1010.8 hPa 67% 0.0mm
13/10:00pm W 4-6 kts 15.5°c 1010.8 hPa 70% 0.0mm
13/09:30pm WNW 2-3 kts 15.4°c 1010.6 hPa 74% 0.0mm
13/09:00pm W 4-6 kts 16.3°c 1010.7 hPa 73% 0.0mm
13/08:30pm WNW 4-6 kts 16.3°c 1010.5 hPa 76% 0.0mm
13/08:00pm WNW 4-6 kts 16.4°c 1010.4 hPa 76% 0.0mm
13/07:30pm WNW 3-6 kts 16.9°c 1010.3 hPa 82% 0.0mm
13/07:00pm WNW 4-6 kts 16.9°c 1010.1 hPa 88% 0.0mm
13/06:30pm N 5-7 kts 18.1°c 1010.2 hPa 90% 0.0mm
13/06:00pm NNE 4-5 kts 17.6°c 1010.2 hPa 88% 0.0mm
13/05:30pm NE 5-6 kts 17.7°c 1009.7 hPa 83% 0.0mm
13/05:00pm NE 5 kts 18.0°c 1009.7 hPa 78% 0.0mm
13/04:30pm ENE 5-6 kts 18.7°c 1009.7 hPa 76% 0.0mm
13/04:00pm ENE 5-6 kts 19.7°c 1009.5 hPa 74% 0.0mm
13/03:30pm ESE 5 kts 20.3°c 1009.4 hPa 72% 0.0mm
13/03:00pm ESE 5-6 kts 20.7°c 1009.4 hPa 71% 0.0mm
13/02:30pm ESE 5-6 kts 21.1°c 1009.7 hPa 70% 0.0mm
13/02:00pm ENE 4-5 kts 21.3°c 1009.9 hPa 70% 0.0mm
13/01:30pm SE 1-2 kts 22.0°c 1010.4 hPa 65% 0.0mm
13/01:00pm SSW 2-3 kts 21.7°c 1010.9 hPa 68% 0.0mm
13/12:30pm WSW 2-6 kts 21.6°c 1011.3 hPa 67% 0.0mm
13/12:00pm WSW 2-6 kts 21.2°c 1011.8 hPa 67% 0.0mm
13/11:30am SW 3-6 kts 20.7°c 1012.5 hPa 71% 0.0mm
13/11:00am SSW 3-6 kts 20.3°c 1013.0 hPa 75% 0.0mm
13/10:30am SW 3-6 kts 19.8°c 1013.2 hPa 78% 0.0mm
13/10:00am WSW 5-8 kts 18.7°c 1013.6 hPa 82% 0.0mm
13/09:30am WSW 5-7 kts 18.0°c 1013.7 hPa 90% 0.0mm
13/09:00am WSW 4-7 kts 17.2°c 1014.0 hPa 95% 0.0mm
13/08:30am W 4-7 kts 16.5°c 1014.1 hPa 98% 0.0mm
13/08:00am W 4-6 kts 15.9°c 1014.0 hPa 99% 0.0mm
13/07:30am W 4-6 kts 15.2°c 1013.9 hPa 100% 0.0mm
13/07:00am W 6-8 kts 14.6°c 1013.9 hPa 100% 0.0mm
13/06:30am W 5-7 kts 14.5°c 1013.9 hPa 100% 0.0mm
13/06:00am W 6-8 kts 14.7°c 1013.7 hPa 100% 0.0mm
13/05:30am W 6-9 kts 14.7°c 1013.7 hPa 100% 0.0mm
13/05:00am WSW 6-9 kts 14.9°c 1013.9 hPa 100% 0.0mm
13/04:30am W 7-9 kts 14.9°c 1013.5 hPa 100% 0.0mm
13/04:00am W 6-8 kts 15.1°c 1013.3 hPa 99% 0.0mm
13/03:30am W 6-8 kts 15.2°c 1013.5 hPa 99% 0.0mm
13/03:00am W 7-10 kts 15.3°c 1013.9 hPa 99% 0.0mm
13/02:30am W 6-9 kts 15.4°c 1014.4 hPa 98% 0.0mm
13/02:00am W 6-9 kts 15.4°c 1014.8 hPa 97% 0.0mm
13/01:30am W 6-8 kts 15.7°c 1015.2 hPa 96% 0.0mm
13/01:00am W 5-7 kts 15.7°c 1015.5 hPa 94% 0.0mm
13/12:30am WSW 7-9 kts 15.8°c 1015.8 hPa 93% 0.0mm
13/12:00am W 7-9 kts 15.6°c 1015.8 hPa 91% 0.0mm
Time Wind Speed Temp Pressure Rel. Hum Rain
12/11:30pm W 6-7 kts 15.6°c 1016.0 hPa 89% 0.0mm
12/11:00pm SW 6-10 kts 16.4°c 1016.4 hPa 90% 0.0mm
12/10:30pm SW 5-7 kts 16.7°c 1016.4 hPa 91% 0.0mm
12/10:00pm WSW 5-7 kts 16.6°c 1016.9 hPa 91% 0.0mm
12/09:30pm SW 4-7 kts 17.2°c 1017.1 hPa 90% 0.0mm
12/09:00pm S 4-6 kts 17.5°c 1016.9 hPa 90% 0.0mm
12/08:30pm SSE 5-7 kts 17.8°c 1017.3 hPa 89% 0.0mm
12/08:00pm SE 7-9 kts 18.2°c 1017.3 hPa 86% 0.0mm
12/07:30pm ESE 8-12 kts 18.7°c 1017.4 hPa 85% 0.0mm
12/07:00pm SSE 11-12 kts 18.9°c 1017.1 hPa 85% 0.0mm
12/06:30pm S 12-14 kts 19.6°c 1017.0 hPa 83% 0.0mm
12/06:00pm S 12-14 kts 19.4°c 1016.7 hPa 78% 0.0mm
12/05:30pm S 11-13 kts 19.1°c 1016.6 hPa 82% 0.0mm
12/05:00pm S 6-11 kts 19.4°c 1016.6 hPa 85% 0.0mm
12/04:30pm S 8-10 kts 19.4°c 1016.6 hPa 83% 0.0mm
12/04:00pm S 7-9 kts 20.0°c 1016.7 hPa 80% 0.0mm
12/03:30pm S 6-8 kts 20.4°c 1016.8 hPa 80% 0.0mm
12/03:00pm S 10-14 kts 20.8°c 1016.9 hPa 83% 0.0mm
12/02:30pm SSW 11-14 kts 20.1°c 1016.9 hPa 85% 0.0mm
12/02:00pm SSW 10-13 kts 19.9°c 1017.0 hPa 83% 0.0mm
12/01:30pm SSW 11-15 kts 19.6°c 1017.4 hPa 81% 0.0mm
12/01:00pm SSW 10-14 kts 19.7°c 1017.8 hPa 81% 0.0mm
12/12:30pm SSW 13-17 kts 19.1°c 1018.4 hPa 80% 0.0mm
12/12:00pm SSW 14-18 kts 19.6°c 1018.6 hPa 81% 0.0mm
12/11:30am SSW 13-17 kts 19.3°c 1019.0 hPa 84% 0.0mm
12/11:00am SSW 12-16 kts 18.7°c 1019.5 hPa 84% 0.0mm
12/10:30am SSW 10-14 kts 18.7°c 1019.5 hPa 82% 0.0mm
12/10:00am SSW 8-12 kts 18.3°c 1019.5 hPa 83% 0.0mm
12/09:30am SW 6-8 kts 18.3°c 1019.4 hPa 87% 0.0mm
12/09:00am SW 4-7 kts 17.3°c 1019.6 hPa 91% 0.0mm
12/08:30am WSW 6-8 kts 15.8°c 1019.5 hPa 93% 0.0mm
12/08:00am WSW 5-7 kts 15.7°c 1019.4 hPa 93% 0.0mm
12/07:30am WSW 6-9 kts 15.5°c 1019.2 hPa 93% 0.0mm
12/07:00am WSW 7-10 kts 15.3°c 1018.8 hPa 93% 0.0mm
12/06:30am WSW 6-10 kts 15.2°c 1018.4 hPa 94% 0.0mm
12/06:00am WSW 7-10 kts 14.8°c 1018.3 hPa 93% 0.0mm
12/05:30am WSW 6-9 kts 14.8°c 1018.2 hPa 93% 0.0mm
12/05:00am WSW 6-10 kts 15.2°c 1018.4 hPa 93% 0.0mm
12/04:30am WSW 6-9 kts 15.1°c 1018.1 hPa 94% 0.0mm
12/04:00am WSW 6-9 kts 15.3°c 1018.2 hPa 94% 0.0mm
12/03:30am WSW 6-10 kts 15.6°c 1018.2 hPa 93% 0.0mm
12/03:00am WSW 6-10 kts 15.6°c 1017.8 hPa 92% 0.0mm
12/02:30am W 6-9 kts 15.7°c 1017.8 hPa 91% 0.0mm
12/02:00am WSW 7-10 kts 16.1°c 1017.9 hPa 91% 0.0mm
12/01:30am SW 7-10 kts 16.1°c 1017.9 hPa 89% 0.0mm
12/01:00am SW 7-9 kts 16.1°c 1017.9 hPa 88% 0.0mm
12/12:30am WSW 7-9 kts 15.9°c 1018.2 hPa 86% 0.0mm
12/12:00am WSW 6-8 kts 16.2°c 1018.4 hPa 84% 0.0mm